709  
ASUS44 KOHX 201610  
RWROHX  
MIDDLE TENNESSEE HOURLY WEATHER ROUNDUP  
NATIONAL WEATHER SERVICE NASHVILLE TN  
1000 AM CST WED FEB 20 2019  
 
NOTE: "FAIR" INDICATES FEW OR NO CLOUDS BELOW 12,000 FEET WITH  
NO SIGNIFICANT WEATHER AND/OR S TO VISIBILITY
.  
 
* THESE REPORTS ARE NOT UNDER NWS QUALITY CONTROL AND MAY NOT  
REPORT WEATHER SUCH AS PRECIPITATION AND FOG.
 
 
 
TNZ005>011-023>034-057-059-062>066-078-080-201700   
..NORTHERN MIDDLE TENNESSEE
 
 
 
CITY SKY/WX TMP DP RH WIND PRES REMARKS
 
CLARKSVILLE PTSUNNY 47 44 90 S12 29.85F  
CROSSVILLE LGT RAIN 48 46 93 S14G23 29.99F  
DICKSON CLOUDY 50 48 93 S10G17 29.86F FOG  
GALLATIN CLOUDY 50 50 100 CALM 29.94F  
LEBANON CLOUDY 52 50 93 E6 29.87F  
LIVINGSTON N/A 54 N/A N/A SW8G15 29.95R  
NASHVILLE TSTM 51 48 89 S8 29.91R FOG  
ROCKWOOD CLOUDY 43 43 100 SW9 30.02F FOG  
SMYRNA RAIN 51 49 92 VRB7 29.93F  
SPARTA CLOUDY 52 48 87 S14G25 29.95R  
SPRINGFIELD CLOUDY 48 48 100 SE8 29.87F FOG  
WEST NASHVILLE CLOUDY 48 48 100 E6 29.89S FOG  

 
TNZ056-058-060-061-075>077-079-093>097-201700   
..SOUTHERN MIDDLE TENNESSEE
 
 
 
CITY SKY/WX TMP DP RH WIND PRES REMARKS
 
COLUMBIA CLOUDY 52 52 100 VRB7G17 29.86F FOG  
FAYETTEVILLE CLOUDY 50 48 93 S21G33 29.93S  
LAWRENCEBURG FOG 50 48 93 SE22G32 29.91F VSB 1/4  
LEWISBURG CLOUDY 52 50 93 S13G20 29.90F FOG  
MCMINNVILLE CLOUDY 54 50 87 SW6 29.96R FOG  
MURFREESBORO CLOUDY 52 50 93 S14G20 29.91S FOG  
PULASKI CLOUDY 52 50 93 SW3 29.96R FOG  
SHELBYVILLE CLOUDY 52 50 93 S17G25 29.94R FOG  
TULLAHOMA CLOUDY 48 46 93 SE12G23 29.94R  
WINCHESTER CLOUDY 48 45 87 SE9G16 29.97F  

 
 
   
..KEY TO REMARKS
 
 
VSB - VISIBILITY IN MILES  
WCI - WIND CHILL INDEX  
HX - HEAT INDEX  
 
 
 
CLICK HERE TO GO TO PREVIOUS BULLETINS.

The Nexlab TN Page Main Text Page